Location: Kalberh�ni
(46.4610°N, 7.2453°E)
Time: 21:06:48
(UTC+00:00)

USA 229 - Pass Details

Date: 29 October 2021
Orbit: 946 x 1266 km, 63.4° (Epoch: 25 November)

Event Time Altitude Azimuth Distance (km) Brightness Sun altitude
Rises 17:21:35 0° 220° (SW) 3,632 7.3 -11.0°
Reaches altitude 10° 17:24:04 10° 221° (SW) 2,711 6.6 -11.5°
Maximum altitude 17:30:25 84° 309° (NW) 1,027 3.7 -12.6°
Drops below altitude 10° 17:37:18 10° 39° (NE) 2,917 5.6 -13.7°
Enters shadow 17:38:25 - 39° (NE) 3,326 5.9 -13.9°
